Location: Cherry Springs State Park
(41.6616°N, 77.8240°W)
Time: 18:31:38
(UTC-04:00)

Amateur Radio Satellites - All Passes

Search period start: 28 July 2014 18:01
Search period end: 29 July 2014 18:01
Location: Cherry Springs State Park, 41.6616°N, 77.8240°W

Satellite Date Start Highest point End Downlink Frequencies (MHz)
Time Altitude Azimuth
Hamsat 28 Jul 18:04:41 18:08:44 52° 74° (ENE) 18:12:49 145.90 MHz
JAS-2 28 Jul 18:05:57 18:13:32 57° 70° (ENE) 18:20:39 435.800 - 435.900 CW/SSB, 435.910 FM
RS-15 28 Jul 18:06:30 18:14:31 22° 348° (NNW) 18:22:35 29.354 - 29.394 USB, Beacon 29.352 USB
AO-7 28 Jul 18:40:16 18:45:09 17° 271° (W) 18:50:04 29.400 - 29.500 MHz
SO-67 28 Jul 18:52:16 18:55:03 23° 70° (ENE) 18:57:50 435.3500 MHz FM
Hamsat 28 Jul 19:43:05 19:45:02 13° 270° (W) 19:46:59 145.90 MHz
JAS-2 28 Jul 19:52:00 19:58:44 31° 266° (W) 20:05:11 435.800 - 435.900 CW/SSB, 435.910 FM
HO-68 28 Jul 19:54:35 20:00:02 24° 57° (ENE) 20:05:29 435.675 MHz FM
STRAND 1 28 Jul 20:08:25 20:13:33 88° 104° (ESE) 20:18:39 ?
UKube-1 28 Jul 20:20:04 20:22:00 13° 61° (ENE) 20:23:57 145.840 MHz, 145.915 MHz
RS-15 28 Jul 20:23:13 20:32:04 27° 24° (NNE) 20:41:03 29.354 - 29.394 USB, Beacon 29.352 USB
SO-67 28 Jul 20:25:29 20:28:04 20° 266° (W) 20:30:40 435.3500 MHz FM
SO-50 28 Jul 20:57:25 21:01:32 28° 46° (NE) 21:05:41 436.795 FM
Oscar 11 28 Jul 21:04:31 21:07:25 18° 65° (ENE) 21:10:20 145.825 FM, Beacon 2401.500 USB
MaSat-1 28 Jul 21:05:41 21:08:57 24° 103° (ESE) 21:12:39 437.345 MHz
FUNcube-1 28 Jul 21:26:43 21:28:04 11° 62° (ENE) 21:29:25 145.950 - 145.970 MHz USB
HO-68 28 Jul 21:39:56 21:47:05 72° 256° (WSW) 21:54:16 435.675 MHz FM
STRAND 1 28 Jul 21:49:56 21:51:59 12° 302° (WNW) 21:54:03 ?
UKube-1 28 Jul 21:53:19 21:57:40 66° 258° (WSW) 22:02:02 145.840 MHz, 145.915 MHz
RS-15 28 Jul 22:35:55 22:46:56 69° 53° (NE) 22:58:19 29.354 - 29.394 USB, Beacon 29.352 USB
SO-50 28 Jul 22:37:45 22:42:12 40° 244° (WSW) 22:46:41 436.795 FM
Oscar 11 28 Jul 22:39:12 22:43:17 42° 262° (W) 22:47:24 145.825 FM, Beacon 2401.500 USB
MaSat-1 28 Jul 22:42:16 22:46:04 33° 306° (NW) 22:50:24 437.345 MHz
ISS 28 Jul 22:55:53 22:57:15 12° 129° (SE) 22:58:38 145.800 FM
FUNcube-1 28 Jul 22:59:36 23:03:56 70° 258° (WSW) 23:08:11 145.950 - 145.970 MHz USB
UOSAT-12 28 Jul 23:00:02 23:04:20 33° 48° (NE) 23:08:34 437.025 FM, 437.400 FM
HO-68 28 Jul 23:34:06 23:35:57 11° 274° (W) 23:37:48 435.675 MHz FM
ISS 29 Jul 00:30:11 00:33:31 80° 325° (NW) 00:36:53 145.800 FM
UOSAT-12 29 Jul 00:40:15 00:44:27 32° 246° (WSW) 00:48:35 437.025 FM, 437.400 FM
Sapphire 29 Jul 00:44:55 00:49:50 37° 111° (ESE) 00:54:46 437.095 MHz 1200 baud AX-25 AFSK
RS-15 29 Jul 00:49:01 00:58:32 35° 254° (WSW) 01:08:24 29.354 - 29.394 USB, Beacon 29.352 USB
PCSat 29 Jul 01:17:45 01:23:08 77° 117° (ESE) 01:28:34 145.825 MHz
AO-40 29 Jul 01:27:14 04:08:50 22° 125° (SE) 05:25:04 Beacon 2401.320
Oscar 16 29 Jul 01:40:27 01:43:50 17° 92° (E) 01:47:12 437.025 USB, Beacon 2401.1428
ITAMSAT 1 29 Jul 02:02:34 02:04:12 11° 89° (E) 02:05:49 435.822 SSB
ISS 29 Jul 02:08:05 02:10:39 20° 344° (NNW) 02:13:14 145.800 FM
AO-27 29 Jul 02:20:09 02:23:40 18° 92° (E) 02:27:10 436.795 MHz FM
Uribyol 2 29 Jul 02:20:21 02:23:59 19° 92° (E) 02:27:35 436.500 FM
Sapphire 29 Jul 02:28:23 02:33:16 34° 309° (NW) 02:38:10 437.095 MHz 1200 baud AX-25 AFSK
Gurwin Techsat 1B 29 Jul 02:43:11 02:45:12 12° 88° (E) 02:47:12 435.225 FM
Oscar 19 29 Jul 02:49:59 02:55:10 76° 103° (ESE) 03:00:20 437.125 CW, 437.150 USB
PCSat 29 Jul 03:03:20 03:07:10 19° 317° (NW) 03:11:02 145.825 MHz
AO-Echo 29 Jul 03:07:17 03:12:16 53° 100° (E) 03:17:02 ?
Oscar 16 29 Jul 03:18:29 03:23:32 57° 288° (WNW) 03:28:35 437.025 USB, Beacon 2401.1428
OPAL 29 Jul 03:23:36 03:27:44 28° 64° (ENE) 03:31:54 ?
JAS-1B 29 Jul 03:26:13 03:35:21 53° 97° (E) 03:43:08 435.800 - 435.900 CW/SSB
ITAMSAT 1 29 Jul 03:39:07 03:44:19 83° 285° (WNW) 03:49:29 435.822 SSB
ISS 29 Jul 03:46:14 03:48:19 15° 5° (N) 03:50:24 145.800 FM
Oscar 10/S400 29 Jul 03:47:49 04:51:08 54° 211° (SSW) 11:59:19 145.825 - 145.975 CW/USB, Beacon 145.810 USB
TMSAT-1 29 Jul 03:56:14 04:01:17 44° 99° (E) 04:06:19 436.925 FM
AO-27 29 Jul 03:58:27 04:03:31 55° 289° (WNW) 04:08:32 436.795 MHz FM
Uribyol 2 29 Jul 03:58:45 04:03:45 52° 289° (WNW) 04:08:44 436.500 FM
Gurwin Techsat 1B 29 Jul 04:20:28 04:25:48 82° 285° (WNW) 04:31:06 435.225 FM
Oscar 19 29 Jul 04:31:06 04:33:52 15° 300° (WNW) 04:36:38 437.125 CW, 437.150 USB
AO-7 29 Jul 04:44:51 04:52:08 33° 96° (E) 04:59:21 29.400 - 29.500 MHz
AO-Echo 29 Jul 04:47:03 04:50:35 19° 298° (WNW) 04:54:02 ?
OPAL 29 Jul 05:02:00 05:06:30 35° 260° (W) 05:11:01 ?
Uosat F 29 Jul 05:04:14 05:09:00 42° 99° (E) 05:13:43 435.120 FM
JAS-1B 29 Jul 05:16:57 05:25:29 40° 299° (WNW) 05:33:00 435.800 - 435.900 CW/SSB
ITAMSAT 1 29 Jul 05:21:23 05:22:59 11° 303° (WNW) 05:24:34 435.822 SSB
ISS 29 Jul 05:22:46 05:25:49 31° 24° (NNE) 05:28:52 145.800 FM
MaSat-1 29 Jul 05:24:24 05:26:36 12° 42° (NE) 05:28:48 437.345 MHz
KITSAT 1 29 Jul 05:28:17 05:34:29 25° 104° (ESE) 05:40:42 435.175 FM
TMSAT-1 29 Jul 05:36:44 05:40:56 25° 295° (WNW) 05:45:08 436.925 FM
STRAND 1 29 Jul 05:47:47 05:51:02 17° 61° (ENE) 05:54:18 ?
PANSAT 29 Jul 05:53:17 05:53:33 10° 172° (S) 05:53:48 not established
Gurwin Techsat 1B 29 Jul 06:03:10 06:04:54 12° 303° (WNW) 06:06:39 435.225 FM
AO-7 29 Jul 06:37:10 06:45:15 57° 295° (WNW) 06:53:17 29.400 - 29.500 MHz
Uosat F 29 Jul 06:43:35 06:47:32 24° 296° (WNW) 06:51:27 435.120 FM
ISS 29 Jul 06:59:25 07:02:36 39° 222° (SW) 07:05:45 145.800 FM
MaSat-1 29 Jul 06:59:41 07:05:00 66° 62° (ENE) 07:10:01 437.345 MHz
JAS-2 29 Jul 07:01:41 07:07:16 41° 96° (E) 07:12:19 435.800 - 435.900 CW/SSB, 435.910 FM
KITSAT 1 29 Jul 07:21:01 07:29:07 73° 303° (WNW) 07:37:15 435.175 FM
STRAND 1 29 Jul 07:24:37 07:29:42 64° 258° (WSW) 07:34:50 ?
Hamsat 29 Jul 07:25:48 07:30:07 76° 284° (WNW) 07:34:26 145.90 MHz
PANSAT 29 Jul 07:31:46 07:32:55 11° 185° (S) 07:34:04 not established
SO-67 29 Jul 07:48:32 07:51:31 26° 96° (E) 07:54:28 435.3500 MHz FM
Saudisat 1A 29 Jul 08:06:13 08:10:37 75° 121° (ESE) 08:15:03 436.775 MHz
PCSat 29 Jul 08:24:01 08:26:25 13° 37° (NE) 08:28:49 145.825 MHz
AO-7 29 Jul 08:32:38 08:36:16 14° 316° (NW) 08:39:53 29.400 - 29.500 MHz
MaSat-1 29 Jul 08:38:29 08:41:43 17° 260° (W) 08:44:51 437.345 MHz
JAS-2 29 Jul 08:47:10 08:52:07 28° 297° (WNW) 08:56:39 435.800 - 435.900 CW/SSB, 435.910 FM
HO-68 29 Jul 09:08:30 09:13:48 22° 92° (E) 09:19:02 435.675 MHz FM
KITSAT 1 29 Jul 09:20:01 09:26:01 22° 327° (NNW) 09:32:02 435.175 FM
SO-67 29 Jul 09:22:01 09:24:24 18° 292° (WNW) 09:26:47 435.3500 MHz FM
Sapphire 29 Jul 09:32:24 09:37:18 33° 51° (NE) 09:42:11 437.095 MHz 1200 baud AX-25 AFSK
UKube-1 29 Jul 09:42:14 09:45:29 20° 94° (E) 09:48:43 145.840 MHz, 145.915 MHz
Saudisat 1A 29 Jul 09:47:54 09:50:43 16° 320° (NW) 09:53:33 436.775 MHz
PCSat 29 Jul 10:05:33 10:10:57 63° 58° (ENE) 10:16:19 145.825 MHz
Oscar 11 29 Jul 10:26:36 10:30:31 32° 97° (E) 10:34:25 145.825 FM, Beacon 2401.500 USB
FUNcube-1 29 Jul 10:49:13 10:52:23 21° 94° (E) 10:55:33 145.950 - 145.970 MHz USB
HO-68 29 Jul 10:54:58 11:02:04 70° 290° (WNW) 11:09:08 435.675 MHz FM
Sapphire 29 Jul 11:15:47 11:20:45 37° 249° (WSW) 11:25:41 437.095 MHz 1200 baud AX-25 AFSK
UKube-1 29 Jul 11:17:48 11:21:48 36° 290° (WNW) 11:25:46 145.840 MHz, 145.915 MHz
KITSAT 1 29 Jul 11:22:58 11:25:15 11° 357° (N) 11:27:32 435.175 FM
PCSat 29 Jul 11:50:14 11:53:49 18° 255° (WSW) 11:57:24 145.825 MHz
Oscar 11 29 Jul 12:03:08 12:06:32 23° 293° (WNW) 12:09:56 145.825 FM, Beacon 2401.500 USB
FUNcube-1 29 Jul 12:25:07 12:28:51 32° 290° (WNW) 12:32:36 145.950 - 145.970 MHz USB
JAS-1B 29 Jul 12:25:32 12:29:08 13° 42° (NE) 12:32:48 435.800 - 435.900 CW/SSB
Oscar 19 29 Jul 12:30:49 12:33:34 15° 60° (ENE) 12:36:19 437.125 CW, 437.150 USB
HO-68 29 Jul 12:45:03 12:48:31 14° 309° (NW) 12:51:59 435.675 MHz FM
SO-50 29 Jul 12:52:36 12:57:00 64° 120° (ESE) 13:01:30 436.795 FM
Oscar 16 29 Jul 12:57:30 13:01:43 27° 66° (ENE) 13:05:56 437.025 USB, Beacon 2401.1428
RS-15 29 Jul 13:00:18 13:10:21 41° 108° (ESE) 13:20:11 29.354 - 29.394 USB, Beacon 29.352 USB
KITSAT 1 29 Jul 13:19:25 13:24:46 18° 28° (NNE) 13:30:04 435.175 FM
ITAMSAT 1 29 Jul 13:19:49 13:23:32 20° 63° (ENE) 13:27:16 435.822 SSB
Uribyol 2 29 Jul 13:38:13 13:42:43 31° 67° (ENE) 13:47:12 436.500 FM
AO-27 29 Jul 13:38:14 13:42:42 30° 66° (ENE) 13:47:10 436.795 MHz FM
AO-7 29 Jul 13:59:15 14:00:58 11° 40° (NE) 14:02:41 29.400 - 29.500 MHz
Gurwin Techsat 1B 29 Jul 14:03:41 14:07:37 22° 63° (ENE) 14:11:33 435.225 FM
Oscar 19 29 Jul 14:07:10 14:12:16 75° 257° (WSW) 14:17:25 437.125 CW, 437.150 USB
JAS-1B 29 Jul 14:08:36 14:17:05 48° 64° (ENE) 14:26:21 435.800 - 435.900 CW/SSB
AO-Echo 29 Jul 14:19:46 14:25:03 71° 74° (ENE) 14:30:21 ?
SO-50 29 Jul 14:34:49 14:38:00 19° 319° (NW) 14:41:14 436.795 FM
Oscar 16 29 Jul 14:36:09 14:40:53 38° 262° (W) 14:45:39 437.025 USB, Beacon 2401.1428
UOSAT-12 29 Jul 14:50:52 14:55:26 73° 121° (ESE) 15:00:08 437.025 FM, 437.400 FM
Saudisat 1A 29 Jul 14:55:32 14:56:45 11° 34° (NE) 14:57:57 436.775 MHz
ITAMSAT 1 29 Jul 14:57:31 15:02:37 54° 259° (W) 15:07:44 435.822 SSB
RS-15 29 Jul 15:11:20 15:22:15 60° 311° (NW) 15:33:03 29.354 - 29.394 USB, Beacon 29.352 USB
KITSAT 1 29 Jul 15:14:07 15:22:06 58° 53° (NE) 15:30:00 435.175 FM
TMSAT-1 29 Jul 15:17:08 15:22:24 70° 74° (ENE) 15:27:41 436.925 FM
AO-27 29 Jul 15:17:20 15:22:05 35° 263° (W) 15:26:52 436.795 MHz FM
Uribyol 2 29 Jul 15:17:25 15:22:06 34° 263° (W) 15:26:48 436.500 FM
Gurwin Techsat 1B 29 Jul 15:42:02 15:47:12 52° 260° (W) 15:52:24 435.225 FM
AO-7 29 Jul 15:43:50 15:51:39 47° 62° (ENE) 15:59:29 29.400 - 29.500 MHz
JAS-1B 29 Jul 15:59:00 16:07:27 48° 264° (W) 16:16:51 435.800 - 435.900 CW/SSB
AO-Echo 29 Jul 16:01:22 16:04:18 15° 270° (W) 16:07:14 ?
Uosat F 29 Jul 16:17:35 16:22:32 60° 72° (ENE) 16:27:31 435.120 FM
Saudisat 1A 29 Jul 16:32:50 16:37:14 62° 54° (NE) 16:41:35 436.775 MHz
UOSAT-12 29 Jul 16:32:55 16:36:07 18° 320° (NW) 16:39:22 437.025 FM, 437.400 FM
TMSAT-1 29 Jul 16:59:57 17:02:49 15° 270° (W) 17:05:43 436.925 FM
KITSAT 1 29 Jul 17:10:07 17:17:05 33° 253° (WSW) 17:24:01 435.175 FM
OPAL 29 Jul 17:10:50 17:15:51 57° 103° (ESE) 17:20:53 ?
JAS-2 29 Jul 17:13:06 17:19:07 26° 62° (ENE) 17:24:48 435.800 - 435.900 CW/SSB, 435.910 FM
RS-15 29 Jul 17:29:04 17:37:31 24° 341° (NNW) 17:46:01 29.354 - 29.394 USB, Beacon 29.352 USB
AO-7 29 Jul 17:36:41 17:44:27 42° 261° (W) 17:52:17 29.400 - 29.500 MHz
